This is the latest recevied weather packets stored in our database for station/object DL7AND-1. If no packets are shown the sender has not sent any weather packets the latest 10 day(s).
| Time | Temp. | Humidity | Pressure | Rain* | Wind** | Luminosity | Snow |
|---|---|---|---|---|---|---|---|
| 1777649846 | 22.78° C | - | 1016.3 hPa | 0 mm | - | - | - |
| 1777648298 | 22.78° C | - | 1016.5 hPa | 0 mm | - | - | - |
| 1777645323 | 22.22° C | - | 1016.9 hPa | 0 mm | - | - | - |
| 1777643786 | 22.22° C | - | 1017 hPa | 0 mm | - | - | - |
| 1777637834 | 22.22° C | - | 1018.2 hPa | 0 mm | - | - | - |
| 1777637211 | 21.67° C | - | 1018.2 hPa | 0 mm | - | - | - |
| 1777636635 | 21.67° C | - | 1018.4 hPa | 0 mm | - | - | - |
| 1777636011 | 21.67° C | - | 1018.6 hPa | 0 mm | - | - | - |
| 1777634186 | 21.67° C | - | 1018.7 hPa | 0 mm | - | - | - |
| 1777630298 | 21.11° C | - | 1019.4 hPa | 0 mm | - | - | - |
| 1777627611 | 20.56° C | - | 1019.7 hPa | 0 mm | - | - | - |
| 1777626987 | 20.56° C | - | 1019.7 hPa | 0 mm | - | - | - |
| 1777621899 | 18.33° C | - | 1020 hPa | 0 mm | - | - | - |
| 1777620747 | 17.78° C | - | 1020 hPa | 0 mm | - | - | - |
| 1777613498 | 20° C | - | 1019.6 hPa | 0 mm | - | - | - |
| 1777608698 | 12.22° C | - | 1019.6 hPa | 0 mm | - | - | - |
| 1777603899 | 12.22° C | - | 1019.4 hPa | 0 mm | - | - | - |
| 1777601211 | 12.78° C | - | 1019.5 hPa | 0 mm | - | - | - |
| 1777600299 | 12.78° C | - | 1019.4 hPa | 0 mm | - | - | - |
| 1777594922 | 13.89° C | - | 1019.2 hPa | 0 mm | - | - | - |
| 1777593386 | 13.89° C | - | 1019.2 hPa | 0 mm | - | - | - |
| 1777590410 | 13.89° C | - | 1019.4 hPa | 0 mm | - | - | - |
| 1777589498 | 14.44° C | - | 1019.4 hPa | 0 mm | - | - | - |
| 1777588386 | 14.44° C | - | 1019.5 hPa | 0 mm | - | - | - |
| 1777585610 | 15° C | - | 1019.6 hPa | 0 mm | - | - | - |
* Rain latest hour (hover to see other rain measurements)
** Current wind speed in m/s (hover to see current wind gust speed)